Location: Arfa
(42.3310°N, 1.4154°E)
Time: 01:28:27
(UTC+00:00)

Daily predictions for brighter satellites

Satellite Brightness Start Highest point End
(mag) Time Altitude Azimuth Time Altitude Azimuth Time Altitude Azimuth
Cosmos 1464 Rocket 4.2 00:08:47 60° ENE 00:08:47 60° ENE 00:14:28 10° NNE
Cosmos 2233 Rocket 4.5 00:10:46 50° WNW 00:10:46 50° WNW 00:16:51 10° N
Lacrosse 4 Rocket 3.4 00:13:02 27° NNE 00:13:02 27° NNE 00:15:01 10° NNE
Cosmos 2219 Rocket 2.7 00:06:00 10° NNW 00:11:13 55° NE 00:11:13 55° NE
Cosmos 968 Rocket 4.2 00:19:13 49° N 00:19:13 49° N 00:23:01 10° NNE
Cosmos 2322 Rocket 4.0 00:14:59 10° NW 00:17:43 21° WNW 00:17:43 21° WNW
COSMOS 2428 3.0 00:24:01 10° NNW 00:29:11 65° NNE 00:29:11 65° NNE
SL-16 R/B 4.0 00:28:37 23° E 00:31:06 30° ENE 00:36:23 10° N
CENTAUR R/B 4.5 00:27:24 11° W 00:32:24 25° NNW 00:38:15 10° NNE
Nadezhda 4 Rocket 4.1 00:28:58 10° N 00:35:14 64° E 00:35:18 64° E
Cosmos 2360 Rocket 3.6 00:30:16 10° NW 00:33:24 27° WNW 00:33:24 27° WNW
Cosmos 2034 Rocket 4.0 00:35:41 71° ENE 00:35:41 71° ENE 00:41:43 10° NNE
CZ-2D R/B 3.7 00:33:50 10° NE 00:38:05 25° E 00:38:05 25° E
Meteor 2-9 Rocket 4.5 00:41:29 62° NNW 00:41:29 62° NNW 00:46:19 10° N
GEOS 3 Rocket 4.1 00:38:21 10° NE 00:42:46 59° ENE 00:42:46 59° ENE
Cosmos 2297 Rocket 3.4 00:45:36 31° E 00:45:36 31° E 00:49:51 10° NE
Cosmos 2219 4.2 00:45:50 36° E 00:45:50 36° E 00:50:11 10° NE
Cosmos 1092 Rocket 4.5 00:41:15 10° N 00:47:19 49° ENE 00:48:01 47° E
Cosmos 2333 Rocket 2.7 00:43:47 10° NNW 00:48:11 51° NW 00:48:11 51° NW
Helios 1B rocket 4.1 00:46:36 10° N 00:48:49 31° N 00:48:49 31° N
Cosmos 44 Rocket 4.0 00:51:04 10° NNW 00:55:08 53° N 00:55:08 53° N
Cosmos 2237 Rocket 3.0 00:53:21 10° NNW 00:58:49 47° ENE 00:59:51 42° E
ATLAS 3B CENTAUR R/B 4.4 01:13:44 32° SSE 01:13:44 32° SSE 01:18:44 10° ESE
Meteor 1-12 Rocket 4.2 01:11:28 84° NW 01:11:28 84° NW 01:17:23 10° N
Timation 2 Rocket 3.8 01:14:34 82° W 01:14:42 83° WNW 01:20:48 10° NNE
In-Cosmos 22 4.1 01:13:49 10° N 01:19:15 81° NE 01:19:15 81° NE
Meteor 1-15 Rocket 4.4 01:22:53 60° ESE 01:23:08 61° E 01:28:40 10° NNE
SJ 16-02 3.1 01:25:10 24° E 01:25:10 24° E 01:28:21 10° NE
Cosmos 2227 Rocket 2.2 01:33:34 70° ESE 01:33:43 70° ESE 01:39:22 10° NNE
Meteor 2-13 Rocket 4.2 01:27:36 10° N 01:33:44 83° W 01:34:11 76° SSW
Cosmos 1538 Rocket 3.9 01:30:46 10° NNW 01:35:51 80° NE 01:35:51 80° NE
MOZ.5/SAFIR/RUBIN 5/SL-8 4.3 01:36:59 54° NW 01:36:59 54° NW 01:40:45 10° NNW
Cosmos 2195 Rocket 4.3 01:30:03 10° N 01:36:23 80° W 01:37:03 71° SSW
Cosmos 1025 Rocket 4.5 01:33:46 10° NNW 01:36:08 30° NW 01:36:08 30° NW
Resurs 1-4 Rocket 2.0 01:34:02 10° NNE 01:39:21 86° ESE 01:39:24 85° SE
Cosmos 1674 4.1 01:37:30 10° N 01:39:47 35° N 01:39:47 35° N
NOSS 0 Rocket 4.1 01:39:04 10° NW 01:44:40 53° W 01:44:40 53° W
Cosmos 2279 Rocket 4.1 01:44:46 54° SSE 01:46:06 70° E 01:52:16 10° NNE
USA 215 3.2 01:43:35 10° NE 01:50:08 71° SE 01:51:29 56° SSW
Lacrosse 4 Rocket 4.1 01:49:24 10° NW 01:50:11 10° NW 01:50:58 10° NNW
Cosmos 2026 Rocket 3.8 01:44:22 10° NNW 01:50:26 73° W 01:51:08 66° SW
Cosmos 1634 Rocket 3.9 01:50:26 61° WSW 01:51:14 68° W 01:57:28 10° N
Cosmos 1627 Rocket 4.4 01:46:55 10° NNW 01:53:01 66° W 01:53:40 62° SW
Cosmos 2082 3.9 01:53:29 53° SE 01:54:18 58° ESE 01:59:49 10° NNE
Cosmos 2219 Rocket 4.0 01:50:56 10° NW 01:52:54 17° WNW 01:52:54 17° WNW
Cosmos 2344 4.4 01:46:36 10° NW 01:56:32 84° WSW 02:10:29 10° SSE
IRAS Rocket 4.2 01:56:59 60° WSW 01:56:59 60° WSW 02:02:30 10° NNW
SL-4 R/B 3.6 01:58:02 19° NNW 01:59:43 28° NNE 02:02:42 10° E
Cosmos 2142 Rocket 4.4 02:00:56 57° SSW 02:02:16 77° W 02:08:41 10° N
Meteor 1-24 Rocket 3.9 02:01:18 10° N 02:06:45 64° ENE 02:08:55 35° SSE
SL-16 R/B 2.6 02:01:51 10° NNW 02:07:31 61° ENE 02:12:33 13° SE
CBERS-1 4.1 02:03:03 10° NNE 02:08:11 70° ESE 02:09:09 55° SSE
Meteor 2-5 Rocket 3.6 02:04:50 10° N 02:10:30 89° W 02:11:59 51° S
Cosmos 1898 Rocket 4.1 02:11:42 38° SSE 02:13:07 49° ESE 02:18:09 10° NNE
SL-16 R/B 2.7 02:13:42 47° WSW 02:14:24 49° W 02:20:28 10° NNW
ARIANE 5 R/B 3.6 02:10:44 10° NNE 02:15:36 38° E 02:18:02 25° SSE
NPP 3.9 02:12:16 10° N 02:17:31 54° WNW 02:18:22 49° WSW
IDEFIX/ARIANE 42P 4.3 02:14:02 10° NE 02:18:23 27° E 02:21:55 14° SE
CZ-2D R/B 2.6 02:13:19 10° N 02:18:31 45° WNW 02:19:24 42° W
NOSS 3-1 (C) 3.7 02:17:24 38° SSE 02:18:54 48° ESE 02:24:42 10° NE
Cosmos 1680 Rocket 3.8 02:14:04 10° NNW 02:19:17 65° ENE 02:22:58 19° SSE
USA 267 4.2 02:15:08 10° ESE 02:21:22 49° NNE 02:27:36 10° NW
AQUA 4.0 02:19:23 10° N 02:24:00 52° WNW 02:24:26 50° W
Cosmos 990 Rocket 4.1 02:23:20 46° S 02:24:46 68° ESE 02:29:55 10° NNE
Cosmos 1766 4.0 02:26:32 40° NW 02:26:32 40° NW 02:29:42 10° N
Cosmos 1607 4.1 02:19:37 10° NNW 02:26:07 80° ENE 02:32:35 10° SE
ADEOS II 2.0 02:21:34 10° NNE 02:26:52 90° NNE 02:28:23 48° SSW
Cosmos 2263 Rocket 3.8 02:23:53 15° SSE 02:27:17 26° ESE 02:31:48 10° NE
Meteor 1-22 Rocket 4.0 02:27:12 52° SSW 02:28:28 78° W 02:33:47 10° N
Cosmos 2297 Rocket 3.0 02:27:24 33° W 02:28:49 38° WNW 02:34:04 10° N
Cosmos 2219 4.2 02:27:45 28° W 02:29:11 32° NW 02:34:14 10° N
IRS-1D 3.5 02:25:39 10° N 02:30:41 71° WNW 02:31:54 51° SW
Okean 1-7 Rocket 3.7 02:28:56 10° N 02:33:21 72° E 02:35:04 36° SSE
IRS-1C 4.1 02:31:07 10° NNE 02:36:29 79° ESE 02:38:42 37° S
TIMED 4.4 02:33:19 10° NNW 02:37:43 87° ENE 02:39:36 34° SSE
Meteor 1-28 Rocket 3.7 02:36:22 31° SE 02:37:55 58° ENE 02:41:40 10° N
Okean 1 Rocket 4.4 02:38:14 26° WNW 02:38:14 26° WNW 02:41:41 10° NNW
Cosmos 1626 2.4 02:35:45 10° NNW 02:38:56 52° WNW 02:38:56 52° WNW
Cosmos 2266 Rocket 4.0 02:34:01 10° N 02:40:26 88° E 02:45:02 20° S
Cosmos 1655 Rocket 3.9 02:35:02 10° NNW 02:41:17 70° W 02:44:27 30° S
Cosmos 1470 2.7 02:41:43 57° S 02:42:28 83° E 02:46:27 10° N
Cosmos 2237 Rocket 3.4 02:38:00 10° NW 02:41:37 24° W 02:41:37 24° W
CZ-4B R/B 3.8 02:39:22 10° N 02:43:53 44° WNW 02:44:51 39° WSW
SL-08 R/B 3.4 02:43:56 22° SSE 02:47:12 87° ENE 02:52:11 10° NNW
Cosmos 923 Rocket 4.2 02:44:09 10° NNW 02:49:18 52° WSW 02:51:06 36° SSW
USA 229 DEB 3.7 02:48:33 31° SSW 02:51:54 75° ESE 02:58:42 10° NE
USA 229 3.7 02:48:39 31° SSW 02:52:00 74° ESE 02:58:46 10° NE
Cosmos 2098 Rocket 3.6 02:50:29 10° NNW 02:55:23 72° W 02:59:34 20° S
Cosmos 158 Rocket 4.1 02:51:51 10° NNW 02:57:08 59° WSW 03:00:33 22° S
NOSS 2-3 (C) 4.0 03:01:07 30° S 03:03:00 54° ESE 03:07:39 10° NE
NOSS 3-1 (A) 3.5 03:00:07 26° SSW 03:03:07 62° ESE 03:09:12 10° NE
SJ 16-02 2.4 03:02:10 28° W 03:03:12 31° WNW 03:07:10 10° N
ERBS 2.1 03:00:32 10° NW 03:03:47 60° SW 03:07:01 10° SSE
SL-14 R/B 4.1 03:00:22 10° NNW 03:03:47 32° W 03:03:47 32° W
SL-23 DEB 4.2 03:03:33 10° WNW 03:09:42 57° SW 03:13:25 10° SE
Cosmos 858 Rocket 4.5 03:07:27 29° SSW 03:10:12 72° WNW 03:15:31 10° NNE
Cosmos 1455 Rocket 3.7 03:11:32 30° WSW 03:12:50 37° WNW 03:16:58 10° N
Cosmos 1943 4.2 03:08:48 10° NNW 03:14:15 49° ENE 03:19:41 10° SE
Cosmos 1809 Rocket 4.4 03:08:22 10° N 03:14:29 81° W 03:20:36 10° S
MSX 4.3 03:08:54 10° NNE 03:14:37 61° ESE 03:20:19 10° S
Cosmos 1758 3.6 03:13:24 33° SW 03:14:47 49° W 03:18:43 10° N
Cosmos 1626 Rocket 3.4 03:11:20 10° N 03:15:40 88° W 03:19:54 11° S
Cosmos 2227 Rocket 3.9 03:15:24 14° W 03:18:20 20° NW 03:22:29 10° N
Resurs 1-4 Rocket 4.1 03:15:51 10° NNW 03:18:25 14° WNW 03:20:28 11° W
Spot 4 Rocket 4.0 03:14:01 10° NNE 03:19:13 81° WNW 03:23:00 19° SSW
Meteor 1-21 Rocket 4.3 03:13:55 10° N 03:19:30 80° E 03:25:01 10° SSE
SeaSat 1 2.9 03:18:34 10° NE 03:23:27 57° ESE 03:27:42 13° S
Landsat 5 3.8 03:19:41 10° SSE 03:23:30 63° ENE 03:27:28 10° N
Cosmos 1461 4.0 03:23:26 22° W 03:25:35 35° NW 03:29:48 10° NNE
CZ-2C R/B 2.7 03:23:22 10° NNE 03:27:16 85° E 03:30:09 17° SSW
CZ-2D R/B 3.6 03:24:54 10° N 03:28:52 54° WNW 03:31:11 22° SW
Cosmos 2227 4.2 03:24:44 18° SSW 03:29:04 87° WNW 03:34:54 10° NNE
FALCON 9 DEB 3.8 03:27:12 10° NW 03:30:39 58° NNE 03:34:04 10° ESE
ATLAS CENTAUR R/B 3.7 03:27:57 10° SSE 03:30:59 19° ESE 03:33:54 10° ENE
Cosmos 1340 Rocket 3.8 03:29:56 23° WSW 03:31:26 30° WNW 03:34:59 10° N
ATLAS 3B CENTAUR R/B 3.9 03:27:05 17° WSW 03:32:34 27° SSW 03:37:31 10° SE
USA 215 4.1 03:26:49 10° NE 03:32:54 43° NNW 03:38:49 11° W
Cosmos 1758 Rocket 4.4 03:29:24 10° N 03:33:37 52° E 03:37:50 10° SSE
ERS-2 2.3 03:31:09 10° SSE 03:34:46 75° ENE 03:38:25 10° N
Cosmos 2228 4.3 03:31:39 10° SSE 03:35:44 42° E 03:39:52 10° NNE
Cosmos 724 4.3 03:31:01 10° NNW 03:37:04 87° WSW 03:43:12 10° SSE
Meteor 2-21 4.5 03:31:33 10° NNW 03:37:31 61° W 03:43:28 10° S
Cosmos 1953 2.5 03:35:03 19° SSW 03:37:43 54° W 03:41:41 10° N
SL-4 R/B 1.5 03:36:04 10° WNW 03:39:25 54° SW 03:42:45 10° SE
Cosmos 1726 2.6 03:38:38 21° SW 03:40:40 40° WNW 03:44:11 10° N
Cosmos 1908 3.4 03:38:58 10° S 03:42:51 77° E 03:46:47 10° N
Meteor 1-16 Rocket 4.1 03:38:33 10° S 03:43:54 84° W 03:49:24 10° N
Cosmos 2285 Rocket 4.2 03:39:18 10° S 03:45:36 75° ESE 03:51:54 10° NNE
H-2A R/B 2.0 03:45:05 10° S 03:49:10 57° W 03:53:13 10° NNW
Cosmos 2150 Rocket 4.1 03:45:19 10° SSW 03:50:27 81° ESE 03:55:41 10° NNE
Cosmos 1937 Rocket 4.5 03:47:07 15° WSW 03:50:47 33° WNW 03:55:35 10° N
SL-16 R/B 3.5 03:47:09 10° NW 03:51:04 19° W 03:54:15 12° SW
ARIANE 5 R/B 3.7 03:50:07 10° N 03:54:31 28° WNW 03:58:22 12° WSW
Cosmos 1825 Rocket 3.8 03:51:53 10° N 03:56:14 74° E 04:00:32 10° SSE
IDEFIX/ARIANE 42P 3.2 03:53:16 10° N 03:58:04 39° WNW 04:02:43 11° SW
CZ-4C R/B 3.4 03:55:36 10° SSW 03:58:34 36° W 04:01:38 10° NNW
Cosmos 1328 3.8 03:56:38 10° N 04:00:38 85° W 04:04:37 10° S
ADEOS 4.4 03:56:06 10° NNE 04:01:13 51° E 04:06:16 10° S
NOSS 2-3 (E) 4.3 03:57:58 13° WSW 04:01:32 45° NW 04:06:19 10° NNE
CZ-4B R/B 2.4 03:58:26 10° SSE 04:01:38 48° ENE 04:04:47 10° N
Cosmos 1953 Rocket 4.4 03:57:50 10° N 04:02:17 57° E 04:06:41 10° SSE
USA 267 3.3 03:57:53 10° SSE 04:04:17 58° SW 04:10:44 10° NW
ADEOS II 4.1 04:03:27 10° NNW 04:05:47 13° WNW 04:08:06 10° W
NOSS 3-1 (C) 4.4 04:04:57 10° WSW 04:09:57 32° NW 04:15:41 10° NNE
Cosmos 2263 Rocket 2.7 04:05:37 10° SW 04:10:54 45° WNW 04:16:15 10° NNE
Cosmos 1703 3.5 04:07:32 10° NNW 04:11:24 51° W 04:15:14 10° S
Cosmos 1553 Rocket 4.0 04:07:15 10° SSW 04:13:14 61° W 04:19:16 10° N
Cosmos 1386 Rocket 4.5 04:08:00 10° N 04:14:03 88° E 04:20:04 10° S
SAR-Lupe-4 3.6 04:13:15 10° SSE 04:16:49 86° ENE 04:20:25 10° NNW
OAO 3 Rocket 4.3 04:15:56 10° SW 04:20:19 32° S 04:24:41 10° ESE
Cosmos 482 Debris 4.2 04:16:25 10° WNW 04:21:43 76° SW 04:24:51 10° SE
Cosmos 1606 Rocket 3.7 04:17:27 10° SSW 04:21:52 60° W 04:26:19 10° N
Aureole 3 4.2 04:17:29 10° SSW 04:22:24 69° WNW 04:28:41 10° N
Cosmos 1300 2.9 04:20:22 10° S 04:24:09 75° E 04:27:59 10° NNE
SL-08 ROCKET BODY 4.4 04:18:44 10° NNW 04:24:47 68° W 04:30:42 10° S
Cosmos 1745 Rocket 4.0 04:18:35 10° NNW 04:24:52 73° W 04:31:03 10° S
CZ-2C R/B 2.3 04:20:31 10° N 04:25:01 61° WNW 04:29:34 10° SSW
Cosmos 1125 Rocket 3.5 04:21:11 10° SSW 04:26:23 76° WNW 04:31:40 10° NNE
